CDG8831 ZSJN-ZUUU

Flight info

Callsign CDG8831
Flight time 2h 15m
Altitude 30100
Route EXUVU W4 LIMGI W152 BUBDU W276 ANRUG W279 ONEBA G212 SUBUL W230 AKDIK
Aircraft B738/M-SDE2E3FGHIRWXY/LB1

Departure

Time 2026-04-23 03:12
Airport Jinan Yaoqiang International Airport (ZSJN)

Arrival

Time 2026-04-23 05:27
Airport Chengdu Shuangliu International Airport (ZUUU)
Time Latitude Longitude Altitude Speed Heading
2026-04-23 02:35 36.84840 117.20936 83 ft 0 kts 205°
2026-04-23 03:01 36.84841 117.20936 83 ft 1 kts 205°
2026-04-23 03:02 36.84855 117.20943 83 ft 2 kts 204°
2026-04-23 03:02 36.84868 117.20951 83 ft 2 kts 205°
2026-04-23 03:02 36.84882 117.20959 83 ft 2 kts 204°
2026-04-23 03:02 36.84895 117.20967 83 ft 2 kts 204°
2026-04-23 03:03 36.84909 117.20975 83 ft 2 kts 204°
2026-04-23 03:03 36.84918 117.20980 83 ft 1 kts 205°
2026-04-23 03:03 36.84930 117.20984 83 ft 0 kts 172°
2026-04-23 03:03 36.84936 117.20982 83 ft 1 kts 166°
2026-04-23 03:04 36.84938 117.20982 83 ft 0 kts 167°
2026-04-23 03:05 36.84924 117.20986 83 ft 4 kts 167°
2026-04-23 03:06 36.84888 117.21014 83 ft 8 kts 118°
2026-04-23 03:06 36.84858 117.21101 83 ft 13 kts 114°
2026-04-23 03:06 36.84819 117.21204 83 ft 12 kts 114°
2026-04-23 03:06 36.84789 117.21300 83 ft 10 kts 97°
2026-04-23 03:07 36.84761 117.21369 83 ft 8 kts 156°
2026-04-23 03:07 36.84701 117.21374 83 ft 8 kts 180°
2026-04-23 03:07 36.84647 117.21374 83 ft 7 kts 179°
2026-04-23 03:07 36.84597 117.21375 83 ft 7 kts 180°
2026-04-23 03:08 36.84540 117.21375 83 ft 9 kts 180°
2026-04-23 03:08 36.84468 117.21375 83 ft 11 kts 180°
2026-04-23 03:08 36.84386 117.21375 83 ft 11 kts 179°
2026-04-23 03:08 36.84311 117.21375 83 ft 10 kts 180°
2026-04-23 03:09 36.84240 117.21375 83 ft 9 kts 180°
2026-04-23 03:09 36.84175 117.21374 83 ft 8 kts 180°
2026-04-23 03:09 36.84139 117.21381 83 ft 4 kts 151°
2026-04-23 03:09 36.84121 117.21410 83 ft 3 kts 106°
2026-04-23 03:10 36.84119 117.21439 83 ft 4 kts 89°
2026-04-23 03:10 36.84119 117.21491 83 ft 7 kts 90°
2026-04-23 03:10 36.84119 117.21551 83 ft 6 kts 90°
2026-04-23 03:10 36.84133 117.21596 83 ft 5 kts 27°
2026-04-23 03:11 36.84158 117.21600 83 ft 0 kts 359°
2026-04-23 03:11 36.84207 117.21600 83 ft 29 kts 359°
2026-04-23 03:11 36.84660 117.21600 83 ft 98 kts 360°
2026-04-23 03:12 36.85560 117.21600 83 ft 156 kts 360°
2026-04-23 03:12 36.86723 117.21602 439 ft 172 kts
2026-04-23 03:12 36.87934 117.21680 1044 ft 178 kts
2026-04-23 03:12 36.89158 117.21737 1702 ft 178 kts
2026-04-23 03:13 36.90372 117.21729 2198 ft 175 kts 359°
2026-04-23 03:13 36.91607 117.21700 2602 ft 178 kts 359°
2026-04-23 03:13 36.92835 117.21673 3014 ft 179 kts 359°
2026-04-23 03:13 36.94104 117.21646 3416 ft 186 kts 359°
2026-04-23 03:14 36.95440 117.21616 3756 ft 198 kts 359°
2026-04-23 03:14 36.96884 117.21584 4049 ft 216 kts 359°
2026-04-23 03:14 36.98419 117.21559 4424 ft 229 kts 360°
2026-04-23 03:14 37.00070 117.21561 4751 ft 246 kts
2026-04-23 03:15 37.01829 117.21571 5185 ft 259 kts
2026-04-23 03:15 37.03690 117.21575 5626 ft 272 kts 360°
2026-04-23 03:15 37.05602 117.21577 6233 ft 277 kts 360°
2026-04-23 03:15 37.07503 117.21484 6930 ft 278 kts 352°
2026-04-23 03:16 37.09359 117.20763 7628 ft 280 kts 329°
2026-04-23 03:16 37.10779 117.19139 8350 ft 282 kts 306°
2026-04-23 03:16 37.12052 117.14464 8884 ft 290 kts 274°
2026-04-23 03:17 37.12069 117.11949 8887 ft 288 kts 269°
2026-04-23 03:17 37.12008 117.09444 8887 ft 288 kts 269°
2026-04-23 03:17 37.11954 117.06935 8887 ft 287 kts 269°
2026-04-23 03:17 37.11925 117.04446 8886 ft 287 kts 271°
2026-04-23 03:18 37.11997 117.01896 8945 ft 296 kts 275°
2026-04-23 03:18 37.12191 116.99355 9791 ft 292 kts 277°
2026-04-23 03:18 37.12425 116.96824 10423 ft 300 kts 278°
2026-04-23 03:18 37.12671 116.94187 10812 ft 316 kts 278°
2026-04-23 03:19 37.12919 116.91382 11201 ft 331 kts 277°
2026-04-23 03:19 37.13166 116.88464 11588 ft 347 kts 277°
2026-04-23 03:19 37.13419 116.85397 12111 ft 358 kts 277°
2026-04-23 03:19 37.13545 116.82283 12817 ft 364 kts 270°
2026-04-23 03:20 37.13112 116.79140 13528 ft 371 kts 253°
2026-04-23 03:20 37.12186 116.76122 14319 ft 374 kts 248°
2026-04-23 03:20 37.11123 116.73132 15072 ft 378 kts 246°
2026-04-23 03:20 37.10040 116.70186 15880 ft 380 kts 247°
2026-04-23 03:21 37.08943 116.67168 16692 ft 381 kts 247°
2026-04-23 03:21 37.07865 116.64133 17402 ft 385 kts 248°
2026-04-23 03:21 37.06798 116.61068 18161 ft 387 kts 248°
2026-04-23 03:21 37.05738 116.57983 18798 ft 391 kts 248°
2026-04-23 03:22 37.04662 116.54831 19447 ft 395 kts 249°
2026-04-23 03:22 37.03587 116.51678 20084 ft 399 kts 248°
2026-04-23 03:22 37.02490 116.48466 20700 ft 403 kts 249°
2026-04-23 03:22 37.01396 116.45264 21318 ft 406 kts 249°
2026-04-23 03:23 37.00277 116.41996 21902 ft 410 kts 249°
2026-04-23 03:23 36.99156 116.38724 22470 ft 414 kts 249°
2026-04-23 03:23 36.98009 116.35385 23047 ft 418 kts 249°
2026-04-23 03:23 36.96864 116.32050 23580 ft 422 kts 248°
2026-04-23 03:24 36.95701 116.28670 24075 ft 426 kts 248°
2026-04-23 03:24 36.94540 116.25301 24604 ft 429 kts 248°
2026-04-23 03:24 36.93359 116.21877 25195 ft 430 kts 248°
2026-04-23 03:24 36.92170 116.18441 25794 ft 430 kts 249°
2026-04-23 03:25 36.90993 116.15041 26313 ft 431 kts 249°
2026-04-23 03:25 36.89793 116.11585 26821 ft 433 kts 249°
2026-04-23 03:25 36.88589 116.08122 27199 ft 437 kts 249°
2026-04-23 03:25 36.87369 116.04614 27584 ft 441 kts 249°
2026-04-23 03:26 36.86149 116.01113 28167 ft 439 kts 249°
2026-04-23 03:26 36.84943 115.97663 28882 ft 434 kts 249°
2026-04-23 03:26 36.83733 115.94207 29473 ft 431 kts 249°
2026-04-23 03:26 36.82546 115.90820 29979 ft 429 kts 250°
2026-04-23 03:27 36.80148 115.83961 30065 ft 432 kts 250°
2026-04-23 03:27 36.77755 115.77132 30068 ft 430 kts 250°
2026-04-23 03:28 36.75372 115.70342 30076 ft 427 kts 250°
2026-04-23 03:28 36.72980 115.63546 30074 ft 428 kts 250°
2026-04-23 03:29 36.70574 115.56722 30068 ft 430 kts 250°
2026-04-23 03:29 36.68180 115.49952 30069 ft 428 kts 250°
2026-04-23 03:30 36.65764 115.43134 30057 ft 428 kts 250°
2026-04-23 03:30 36.63370 115.36393 30067 ft 428 kts 250°
2026-04-23 03:31 36.60969 115.29644 30084 ft 427 kts 250°
2026-04-23 03:31 36.58550 115.22852 30073 ft 427 kts 250°
2026-04-23 03:32 36.55951 115.16099 30068 ft 432 kts 244°
2026-04-23 03:32 36.52208 115.10130 30071 ft 439 kts 230°
2026-04-23 03:33 36.47775 115.04798 30065 ft 440 kts 227°
2026-04-23 03:33 36.43296 114.99688 30089 ft 437 kts 227°
2026-04-23 03:34 36.38835 114.94541 30085 ft 435 kts 228°
2026-04-23 03:34 36.34948 114.88905 30077 ft 429 kts 240°
2026-04-23 03:35 36.31790 114.82596 30079 ft 427 kts 244°
2026-04-23 03:35 36.28849 114.76200 30066 ft 426 kts 244°
2026-04-23 03:36 36.25900 114.69854 30087 ft 425 kts 244°
2026-04-23 03:36 36.22872 114.63570 30067 ft 426 kts 243°
2026-04-23 03:37 36.19792 114.57273 30069 ft 426 kts 243°
2026-04-23 03:37 36.16731 114.51048 30071 ft 424 kts 243°
2026-04-23 03:38 36.13654 114.44794 30059 ft 426 kts 243°
2026-04-23 03:38 36.10585 114.38563 30049 ft 426 kts 243°
2026-04-23 03:39 36.07483 114.32279 30051 ft 426 kts 242°
2026-04-23 03:39 36.04395 114.26033 30065 ft 427 kts 242°
2026-04-23 03:40 36.01319 114.19823 30058 ft 426 kts 242°
2026-04-23 03:40 35.98210 114.13559 30071 ft 427 kts 242°
2026-04-23 03:41 35.95116 114.07333 30080 ft 426 kts 242°
2026-04-23 03:41 35.92020 114.01115 30077 ft 427 kts 242°
2026-04-23 03:42 35.88904 113.94870 30089 ft 426 kts 242°
2026-04-23 03:42 35.85798 113.88655 30089 ft 427 kts 242°
2026-04-23 03:43 35.82692 113.82453 30092 ft 427 kts 242°
2026-04-23 03:43 35.79566 113.76223 30089 ft 427 kts 242°
2026-04-23 03:44 35.76448 113.70019 30103 ft 425 kts 242°
2026-04-23 03:44 35.73347 113.63861 30114 ft 424 kts 242°
2026-04-23 03:45 35.70244 113.57707 30128 ft 425 kts 242°
2026-04-23 03:45 35.67119 113.51520 30139 ft 426 kts 242°
2026-04-23 03:46 35.63982 113.45323 30145 ft 425 kts 242°
2026-04-23 03:46 35.60868 113.39182 30143 ft 425 kts 242°
2026-04-23 03:47 35.57782 113.32975 30138 ft 425 kts 242°
2026-04-23 03:47 35.54726 113.26744 30140 ft 427 kts 242°
2026-04-23 03:48 35.51659 113.20505 30133 ft 425 kts 242°
2026-04-23 03:48 35.48609 113.14321 30122 ft 427 kts 242°
2026-04-23 03:49 35.45540 113.08122 30124 ft 425 kts 242°
2026-04-23 03:49 35.42981 113.02962 30116 ft 425 kts 242°
2026-04-23 03:50 35.39400 112.95758 30111 ft 425 kts 241°
2026-04-23 03:50 35.36313 112.89561 30113 ft 425 kts 241°
2026-04-23 03:51 35.33243 112.83409 30121 ft 425 kts 242°
2026-04-23 03:51 35.30152 112.77228 30126 ft 425 kts 242°
2026-04-23 03:52 35.27070 112.71075 30124 ft 424 kts 242°
2026-04-23 03:52 35.23995 112.64947 30130 ft 423 kts 242°
2026-04-23 03:53 35.20921 112.58831 30129 ft 423 kts 242°
2026-04-23 03:53 35.17861 112.52710 30127 ft 421 kts 242°
2026-04-23 03:54 35.14833 112.46592 30119 ft 423 kts 242°
2026-04-23 03:54 35.11784 112.40435 30119 ft 423 kts 242°
2026-04-23 03:55 35.08747 112.34322 30119 ft 421 kts 242°
2026-04-23 03:55 35.05702 112.28209 30118 ft 421 kts 241°
2026-04-23 03:56 35.02654 112.22102 30120 ft 421 kts 241°
2026-04-23 03:56 34.99606 112.16007 30118 ft 422 kts 241°
2026-04-23 03:57 34.96557 112.09924 30126 ft 422 kts 241°
2026-04-23 03:57 34.93493 112.03821 30124 ft 421 kts 242°
2026-04-23 03:58 34.90430 111.97729 30128 ft 421 kts 242°
2026-04-23 03:58 34.87384 111.91679 30122 ft 421 kts 242°
2026-04-23 03:59 34.84324 111.85560 30117 ft 420 kts 242°
2026-04-23 03:59 34.81320 111.79514 30120 ft 419 kts 242°
2026-04-23 04:00 34.78302 111.73445 30120 ft 420 kts 242°
2026-04-23 04:00 34.75275 111.67375 30121 ft 418 kts 242°
2026-04-23 04:01 34.72264 111.61352 30117 ft 418 kts 242°
2026-04-23 04:01 34.69235 111.55306 30121 ft 417 kts 242°
2026-04-23 04:02 34.66215 111.49290 30118 ft 418 kts 242°
2026-04-23 04:02 34.63195 111.43285 30128 ft 419 kts 242°
2026-04-23 04:03 34.60159 111.37256 30125 ft 417 kts 243°
2026-04-23 04:03 34.57118 111.31227 30128 ft 419 kts 242°
2026-04-23 04:04 34.54089 111.25237 30139 ft 417 kts 242°
2026-04-23 04:04 34.51055 111.19248 30146 ft 415 kts 242°
2026-04-23 04:05 34.48048 111.13317 30128 ft 417 kts 242°
2026-04-23 04:05 34.44992 111.07297 30134 ft 417 kts 242°
2026-04-23 04:06 34.41976 111.01363 30129 ft 415 kts 242°
2026-04-23 04:06 34.38969 110.95361 30125 ft 415 kts 243°
2026-04-23 04:07 34.35989 110.89384 30132 ft 415 kts 243°
2026-04-23 04:07 34.33018 110.83440 30131 ft 414 kts 243°
2026-04-23 04:08 34.30023 110.77465 30138 ft 414 kts 243°
2026-04-23 04:08 34.27047 110.71543 30135 ft 415 kts 243°
2026-04-23 04:09 34.24044 110.65581 30140 ft 413 kts 243°
2026-04-23 04:09 34.21054 110.59654 30149 ft 414 kts 243°
2026-04-23 04:10 34.18068 110.53745 30151 ft 412 kts 243°
2026-04-23 04:10 34.15082 110.47848 30154 ft 412 kts 243°
2026-04-23 04:11 34.12105 110.41962 30149 ft 412 kts 243°
2026-04-23 04:11 34.09121 110.36016 30153 ft 412 kts 244°
2026-04-23 04:12 34.06152 110.30102 30161 ft 412 kts 243°
2026-04-23 04:12 34.03177 110.24188 30168 ft 412 kts 243°
2026-04-23 04:13 34.00210 110.18304 30163 ft 411 kts 243°
2026-04-23 04:13 33.97226 110.12400 30161 ft 412 kts 243°
2026-04-23 04:14 33.94242 110.06504 30160 ft 411 kts 243°
2026-04-23 04:14 33.91249 110.00603 30162 ft 412 kts 243°
2026-04-23 04:15 33.88431 109.94601 30157 ft 408 kts 249°
2026-04-23 04:16 33.85699 109.85033 30158 ft 403 kts 258°
2026-04-23 04:16 33.84289 109.78535 30156 ft 402 kts 259°
2026-04-23 04:17 33.82901 109.72037 30155 ft 403 kts 259°
2026-04-23 04:17 33.81481 109.65488 30162 ft 405 kts 259°
2026-04-23 04:18 33.80044 109.58952 30164 ft 403 kts 259°
2026-04-23 04:18 33.78610 109.52474 30165 ft 404 kts 259°
2026-04-23 04:19 33.77166 109.45927 30168 ft 404 kts 259°
2026-04-23 04:19 33.75734 109.39441 30169 ft 403 kts 259°
2026-04-23 04:20 33.74298 109.32953 30169 ft 403 kts 258°
2026-04-23 04:20 33.72848 109.26421 30172 ft 404 kts 258°
2026-04-23 04:21 33.71397 109.19906 30169 ft 403 kts 258°
2026-04-23 04:21 33.69944 109.13399 30163 ft 404 kts 259°
2026-04-23 04:22 33.68486 109.06895 30157 ft 402 kts 259°
2026-04-23 04:22 33.67030 109.00412 30152 ft 403 kts 258°
2026-04-23 04:23 33.65570 108.93926 30133 ft 405 kts 258°
2026-04-23 04:23 33.64090 108.87377 30156 ft 406 kts 258°
2026-04-23 04:24 33.62603 108.80807 30154 ft 406 kts 258°
2026-04-23 04:24 33.61129 108.74316 30154 ft 404 kts 258°
2026-04-23 04:25 33.59646 108.67799 30162 ft 406 kts 258°
2026-04-23 04:25 33.58150 108.61242 30172 ft 407 kts 258°
2026-04-23 04:26 33.56654 108.54704 30179 ft 406 kts 258°
2026-04-23 04:26 33.55159 108.48189 30198 ft 406 kts 258°
2026-04-23 04:27 33.53653 108.41642 30187 ft 407 kts 258°
2026-04-23 04:27 33.52153 108.35139 30176 ft 407 kts 258°
2026-04-23 04:28 33.49873 108.25291 30158 ft 408 kts 258°
2026-04-23 04:28 33.48349 108.18729 30142 ft 406 kts 257°
2026-04-23 04:29 33.46356 108.12378 30145 ft 413 kts 244°
2026-04-23 04:29 33.42625 108.07053 30150 ft 424 kts 227°
2026-04-23 04:30 33.37907 108.02770 30146 ft 432 kts 214°
2026-04-23 04:30 33.32502 107.99495 30136 ft 431 kts 216°
2026-04-23 04:31 33.27615 107.95388 30130 ft 428 kts 223°
2026-04-23 04:31 33.22980 107.90894 30117 ft 427 kts 225°
2026-04-23 04:32 33.18464 107.86377 30119 ft 426 kts 225°
2026-04-23 04:32 33.13904 107.81825 30107 ft 426 kts 225°
2026-04-23 04:33 33.09364 107.77328 30105 ft 425 kts 225°
2026-04-23 04:33 33.04777 107.72807 30092 ft 425 kts 225°
2026-04-23 04:34 33.00211 107.68323 30089 ft 425 kts 225°
2026-04-23 04:34 32.95653 107.63857 30102 ft 424 kts 225°
2026-04-23 04:35 32.91071 107.59372 30096 ft 425 kts 225°
2026-04-23 04:35 32.86509 107.54916 30107 ft 423 kts 225°
2026-04-23 04:36 32.82067 107.50356 30111 ft 421 kts 230°
2026-04-23 04:36 32.78259 107.45148 30131 ft 415 kts 237°
2026-04-23 04:37 32.74827 107.39626 30135 ft 415 kts 239°
2026-04-23 04:37 32.71487 107.34068 30145 ft 412 kts 239°
2026-04-23 04:38 32.68142 107.28523 30150 ft 414 kts 239°
2026-04-23 04:38 32.64769 107.22977 30164 ft 413 kts 239°
2026-04-23 04:39 32.61413 107.17492 30165 ft 412 kts 239°
2026-04-23 04:39 32.58021 107.11964 30148 ft 412 kts 239°
2026-04-23 04:40 32.54665 107.06506 30150 ft 412 kts 239°
2026-04-23 04:40 32.51253 107.00969 30146 ft 410 kts 239°
2026-04-23 04:41 32.47855 106.95458 30135 ft 412 kts 239°
2026-04-23 04:41 32.44481 106.89997 30127 ft 411 kts 239°
2026-04-23 04:42 32.41096 106.84521 30125 ft 412 kts 239°
2026-04-23 04:42 32.37709 106.79059 30110 ft 410 kts 239°
2026-04-23 04:43 32.34405 106.73546 30104 ft 407 kts 244°
2026-04-23 04:43 32.32050 106.67545 30104 ft 399 kts 255°
2026-04-23 04:44 32.30513 106.61247 30100 ft 397 kts 259°
2026-04-23 04:44 32.29185 106.54896 30095 ft 398 kts 260°
2026-04-23 04:45 32.27868 106.48594 30097 ft 397 kts 260°
2026-04-23 04:45 32.26515 106.42244 30091 ft 396 kts 260°
2026-04-23 04:46 32.25153 106.35936 30093 ft 396 kts 260°
2026-04-23 04:46 32.23782 106.29642 30091 ft 397 kts 259°
2026-04-23 04:47 32.22403 106.23337 30091 ft 397 kts 259°
2026-04-23 04:47 32.20702 106.17117 30098 ft 401 kts 251°
2026-04-23 04:48 32.18043 106.11243 30095 ft 406 kts 244°
2026-04-23 04:48 32.15018 106.05625 30103 ft 407 kts 243°
2026-04-23 04:49 32.11936 106.00018 30106 ft 407 kts 243°
2026-04-23 04:49 32.08883 105.94424 30098 ft 408 kts 243°
2026-04-23 04:50 32.05817 105.88769 30083 ft 407 kts 243°
2026-04-23 04:50 32.02786 105.83169 30075 ft 407 kts 243°
2026-04-23 04:51 31.99740 105.77537 30073 ft 408 kts 243°
2026-04-23 04:51 31.96695 105.71913 30064 ft 407 kts 244°
2026-04-23 04:52 31.93648 105.66293 30077 ft 408 kts 244°
2026-04-23 04:52 31.90593 105.60671 30080 ft 407 kts 244°
2026-04-23 04:53 31.87554 105.55080 30092 ft 407 kts 243°
2026-04-23 04:53 31.84487 105.49454 30083 ft 407 kts 244°
2026-04-23 04:54 31.82969 105.46676 29777 ft 402 kts 244°
2026-04-23 04:54 31.81468 105.43936 29325 ft 396 kts 243°
2026-04-23 04:54 31.80002 105.41263 28951 ft 389 kts 244°
2026-04-23 04:54 31.78554 105.38621 28465 ft 384 kts 244°
2026-04-23 04:55 31.77107 105.35974 27928 ft 381 kts 244°
2026-04-23 04:55 31.75677 105.33356 27376 ft 379 kts 243°
2026-04-23 04:55 31.74266 105.30772 26828 ft 377 kts 243°
2026-04-23 04:55 31.72868 105.28213 26288 ft 375 kts 243°
2026-04-23 04:56 31.71458 105.25634 25742 ft 372 kts 243°
2026-04-23 04:56 31.70076 105.23111 25205 ft 370 kts 243°
2026-04-23 04:56 31.68683 105.20571 24647 ft 368 kts 243°
2026-04-23 04:56 31.67309 105.18036 24094 ft 365 kts 243°
2026-04-23 04:57 31.65969 105.15518 23550 ft 362 kts 243°
2026-04-23 04:57 31.64655 105.13031 23015 ft 360 kts 243°
2026-04-23 04:57 31.63345 105.10551 22473 ft 358 kts 243°
2026-04-23 04:57 31.62046 105.08099 21936 ft 356 kts 243°
2026-04-23 04:58 31.60737 105.05634 21396 ft 354 kts 243°
2026-04-23 04:58 31.59453 105.03220 20870 ft 352 kts 243°
2026-04-23 04:58 31.58153 105.00779 20332 ft 350 kts 242°
2026-04-23 04:58 31.56871 104.98372 19809 ft 348 kts 242°
2026-04-23 04:59 31.55603 104.95993 19271 ft 346 kts 242°
2026-04-23 04:59 31.54324 104.93596 18733 ft 344 kts 242°
2026-04-23 04:59 31.53039 104.91282 18226 ft 343 kts 239°
2026-04-23 04:59 31.51780 104.89401 17773 ft 345 kts 231°
2026-04-23 05:00 31.50005 104.87504 17249 ft 347 kts 221°
2026-04-23 05:00 31.48069 104.85849 16712 ft 348 kts 218°
2026-04-23 05:00 31.46050 104.84269 16181 ft 348 kts 216°
2026-04-23 05:00 31.44027 104.82719 15641 ft 347 kts 216°
2026-04-23 05:01 31.42016 104.81163 15083 ft 346 kts 216°
2026-04-23 05:01 31.40027 104.79602 14542 ft 345 kts 216°
2026-04-23 05:01 31.38051 104.78031 14006 ft 344 kts 216°
2026-04-23 05:01 31.36067 104.76443 13466 ft 342 kts 216°
2026-04-23 05:02 31.34114 104.74876 12931 ft 341 kts 216°
2026-04-23 05:02 31.32167 104.73315 12511 ft 336 kts 216°
2026-04-23 05:02 31.30259 104.71786 12299 ft 325 kts 216°
2026-04-23 05:02 31.28433 104.70327 12190 ft 312 kts 216°
2026-04-23 05:03 31.26656 104.68906 11974 ft 304 kts 216°
2026-04-23 05:03 31.24950 104.67539 11790 ft 294 kts 216°
2026-04-23 05:03 31.23244 104.66266 11669 ft 283 kts 210°
2026-04-23 05:03 31.21492 104.65266 11430 ft 279 kts 205°
2026-04-23 05:04 31.19696 104.64395 11185 ft 278 kts 203°
2026-04-23 05:04 31.17914 104.63559 10951 ft 277 kts 203°
2026-04-23 05:04 31.16114 104.62698 10718 ft 277 kts 204°
2026-04-23 05:04 31.14344 104.61829 10482 ft 275 kts 204°
2026-04-23 05:05 31.12588 104.60957 10251 ft 275 kts 204°
2026-04-23 05:05 31.10815 104.60074 10011 ft 274 kts 204°
2026-04-23 05:05 31.09063 104.59201 9775 ft 273 kts 204°
2026-04-23 05:05 31.07317 104.58333 9538 ft 273 kts 204°
2026-04-23 05:06 31.05564 104.57461 9301 ft 273 kts 204°
2026-04-23 05:06 31.03836 104.56603 9062 ft 271 kts 204°
2026-04-23 05:06 31.02110 104.55746 8822 ft 270 kts 204°
2026-04-23 05:06 31.00366 104.54880 8582 ft 269 kts 204°
2026-04-23 05:07 30.98646 104.54026 8344 ft 269 kts 204°
2026-04-23 05:07 30.96910 104.53165 8097 ft 269 kts 204°
2026-04-23 05:07 30.95192 104.52312 7900 ft 266 kts 204°
2026-04-23 05:07 30.93514 104.51480 7895 ft 267 kts 203°
2026-04-23 05:08 30.91779 104.50620 7889 ft 268 kts 203°
2026-04-23 05:08 30.90059 104.49768 7889 ft 267 kts 203°
2026-04-23 05:08 30.88335 104.48914 7888 ft 268 kts 203°
2026-04-23 05:08 30.86634 104.48073 7884 ft 268 kts 203°
2026-04-23 05:09 30.84926 104.47227 7880 ft 267 kts 203°
2026-04-23 05:09 30.83192 104.46370 7878 ft 267 kts 203°
2026-04-23 05:09 30.81492 104.45529 7875 ft 266 kts 203°
2026-04-23 05:09 30.79785 104.44685 7874 ft 267 kts 203°
2026-04-23 05:10 30.78075 104.43841 7873 ft 267 kts 203°
2026-04-23 05:10 30.76357 104.42992 7873 ft 266 kts 203°
2026-04-23 05:10 30.74656 104.42152 7875 ft 266 kts 203°
2026-04-23 05:10 30.72948 104.41309 7875 ft 267 kts 203°
2026-04-23 05:11 30.71217 104.40456 7874 ft 267 kts 203°
2026-04-23 05:11 30.69511 104.39615 7873 ft 266 kts 203°
2026-04-23 05:11 30.67807 104.38774 7874 ft 267 kts 203°
2026-04-23 05:11 30.66072 104.37920 7874 ft 267 kts 203°
2026-04-23 05:12 30.64376 104.37084 7877 ft 267 kts 203°
2026-04-23 05:12 30.62651 104.36235 7877 ft 266 kts 203°
2026-04-23 05:12 30.60949 104.35397 7878 ft 267 kts 203°
2026-04-23 05:12 30.59238 104.34555 7879 ft 267 kts 202°
2026-04-23 05:13 30.57508 104.33705 7880 ft 267 kts 202°
2026-04-23 05:13 30.55799 104.32864 7878 ft 267 kts 202°
2026-04-23 05:13 30.54087 104.32020 7880 ft 267 kts 204°
2026-04-23 05:14 30.51279 104.29300 7887 ft 270 kts 242°
2026-04-23 05:14 30.50530 104.27306 7888 ft 270 kts 247°
2026-04-23 05:14 30.49843 104.25284 7882 ft 270 kts 247°
2026-04-23 05:14 30.49132 104.23254 7882 ft 270 kts 246°
2026-04-23 05:15 30.48408 104.21256 7879 ft 270 kts 245°
2026-04-23 05:15 30.47666 104.19244 7881 ft 270 kts 245°
2026-04-23 05:15 30.46929 104.17254 7874 ft 270 kts 245°
2026-04-23 05:15 30.46187 104.15252 7873 ft 271 kts 245°
2026-04-23 05:16 30.45442 104.13241 7871 ft 270 kts 245°
2026-04-23 05:16 30.44699 104.11234 7875 ft 270 kts 245°
2026-04-23 05:16 30.43960 104.09238 7873 ft 270 kts 245°
2026-04-23 05:16 30.43222 104.07247 7870 ft 270 kts 245°
2026-04-23 05:17 30.42475 104.05233 7874 ft 269 kts 245°
2026-04-23 05:17 30.41752 104.03284 7868 ft 260 kts 244°
2026-04-23 05:17 30.40906 104.01472 7870 ft 257 kts 232°
2026-04-23 05:17 30.39560 104.00124 7873 ft 256 kts 206°
2026-04-23 05:18 30.37911 103.99338 7875 ft 256 kts 199°
2026-04-23 05:18 30.36243 103.98650 7874 ft 255 kts 199°
2026-04-23 05:18 30.34558 103.97922 7868 ft 255 kts 200°
2026-04-23 05:18 30.32968 103.97198 7864 ft 241 kts 201°
2026-04-23 05:19 30.31431 103.96482 7861 ft 227 kts 201°
2026-04-23 05:19 30.29991 103.95808 7885 ft 223 kts 201°
2026-04-23 05:19 30.28538 103.95131 7886 ft 224 kts 201°
2026-04-23 05:19 30.27093 103.94460 7870 ft 223 kts 201°
2026-04-23 05:20 30.25667 103.93793 7872 ft 224 kts 202°
2026-04-23 05:20 30.24298 103.92870 7644 ft 229 kts 223°
2026-04-23 05:20 30.23474 103.91338 7420 ft 228 kts 254°
2026-04-23 05:20 30.23377 103.89509 7190 ft 231 kts 276°
2026-04-23 05:21 30.23791 103.87708 6949 ft 232 kts 290°
2026-04-23 05:21 30.24406 103.85995 6710 ft 231 kts 292°
2026-04-23 05:21 30.25120 103.84335 6466 ft 231 kts 303°
2026-04-23 05:21 30.26223 103.83027 6249 ft 229 kts 332°
2026-04-23 05:22 30.27757 103.82604 6050 ft 227 kts
2026-04-23 05:22 30.29271 103.83070 5852 ft 225 kts 26°
2026-04-23 05:22 30.30669 103.83821 5658 ft 223 kts 26°
2026-04-23 05:22 30.32109 103.84534 5472 ft 223 kts 24°
2026-04-23 05:23 30.33546 103.85189 5279 ft 222 kts 23°
2026-04-23 05:23 30.34961 103.85828 5145 ft 214 kts 24°
2026-04-23 05:23 30.36345 103.86465 4906 ft 213 kts 24°
2026-04-23 05:23 30.37733 103.87110 4628 ft 211 kts 24°
2026-04-23 05:24 30.39093 103.87737 4326 ft 210 kts 24°
2026-04-23 05:24 30.40453 103.88363 4053 ft 206 kts 24°
2026-04-23 05:24 30.41746 103.88959 3768 ft 193 kts 24°
2026-04-23 05:24 30.42929 103.89504 3587 ft 174 kts 24°
2026-04-23 05:25 30.44025 103.90012 3286 ft 165 kts 24°
2026-04-23 05:25 30.45067 103.90494 3106 ft 160 kts 24°
2026-04-23 05:25 30.46109 103.90975 2898 ft 160 kts 23°
2026-04-23 05:25 30.47153 103.91456 2686 ft 158 kts 23°
2026-04-23 05:26 30.48170 103.91928 2474 ft 158 kts 23°
2026-04-23 05:26 30.49182 103.92405 2288 ft 156 kts 23°
2026-04-23 05:26 30.50185 103.92863 2084 ft 157 kts 22°
2026-04-23 05:26 30.51218 103.93330 1889 ft 158 kts 22°
2026-04-23 05:27 30.52245 103.93807 1701 ft 158 kts 22°
2026-04-23 05:27 30.53200 103.94241 1688 ft 130 kts 23°
2026-04-23 05:27 30.53821 103.94536 1688 ft 63 kts 22°
2026-04-23 05:27 30.54071 103.94624 1688 ft 19 kts
2026-04-23 05:28 30.54202 103.94614 1688 ft 18 kts 350°
2026-04-23 05:28 30.54331 103.94591 1688 ft 18 kts 352°
2026-04-23 05:28 30.54452 103.94607 1688 ft 17 kts 22°
2026-04-23 05:28 30.54565 103.94659 1688 ft 17 kts 21°
2026-04-23 05:29 30.54675 103.94710 1689 ft 16 kts 22°
2026-04-23 05:29 30.54772 103.94756 1689 ft 9 kts 21°
2026-04-23 05:29 30.54831 103.94739 1689 ft 9 kts 308°
2026-04-23 05:29 30.54861 103.94672 1689 ft 9 kts 304°
2026-04-23 05:30 30.54912 103.94635 1689 ft 8 kts 336°
2026-04-23 05:30 30.54969 103.94607 1689 ft 8 kts 336°
2026-04-23 05:30 30.55031 103.94576 1689 ft 11 kts 336°
2026-04-23 05:30 30.55118 103.94532 1689 ft 15 kts 337°
2026-04-23 05:31 30.55238 103.94473 1689 ft 21 kts 336°
2026-04-23 05:31 30.55382 103.94401 1689 ft 22 kts 336°
2026-04-23 05:31 30.55525 103.94330 1689 ft 22 kts 336°
2026-04-23 05:31 30.55665 103.94260 1689 ft 21 kts 337°
2026-04-23 05:32 30.55806 103.94207 1689 ft 21 kts 356°
2026-04-23 05:32 30.55946 103.94237 1689 ft 20 kts 22°
2026-04-23 05:32 30.56079 103.94299 1689 ft 20 kts 22°
2026-04-23 05:32 30.56209 103.94360 1689 ft 19 kts 22°
2026-04-23 05:33 30.56336 103.94419 1689 ft 19 kts 22°
2026-04-23 05:33 30.56460 103.94477 1689 ft 19 kts 22°
2026-04-23 05:33 30.56583 103.94534 1689 ft 19 kts 22°
2026-04-23 05:33 30.56724 103.94600 1689 ft 23 kts 22°
2026-04-23 05:34 30.56885 103.94669 1689 ft 24 kts 13°
2026-04-23 05:34 30.57051 103.94720 1689 ft 24 kts 22°
2026-04-23 05:34 30.57186 103.94784 1689 ft 9 kts 21°
2026-04-23 05:34 30.57211 103.94843 1689 ft 9 kts 104°
2026-04-23 05:35 30.57187 103.94914 1689 ft 10 kts 112°
2026-04-23 05:35 30.57154 103.95008 1689 ft 13 kts 112°
2026-04-23 05:35 30.57128 103.95074 1689 ft 6 kts 131°
2026-04-23 05:35 30.57097 103.95097 1689 ft 4 kts 134°
2026-04-23 05:36 30.57083 103.95126 1689 ft 4 kts 113°
2026-04-23 05:36 30.57080 103.95136 1689 ft 0 kts 113°